Location: Kitt Peak
(31.9633°N, 111.6000°W)
Time: 12:44:55
(UTC-07:00)

Amateur Radio Satellites - All Passes

Search period start: 28 July 2015 12:14
Search period end: 29 July 2015 12:14
Location: Kitt Peak, 31.9633°N, 111.6000°W

Satellite Date Start Highest point End Downlink Frequencies (MHz)
Time Altitude Azimuth
NANOSAT C BR1 28 Jul 12:16:37 12:17:20 10° 269° (W) 12:17:44 145.865
Cosmos 2491 28 Jul 12:27:32 12:36:18 76° 94° (E) 12:45:03 435.465 / 435.565
SPROUT 28 Jul 12:30:35 12:34:51 65° 101° (E) 12:39:07 437.525
AISAT 28 Jul 12:49:12 12:50:51 12° 292° (WNW) 12:52:14 437.250
Oscar 19 28 Jul 12:53:37 12:58:34 54° 74° (ENE) 13:03:34 437.125/150
TISAT 1 28 Jul 12:59:15 13:03:29 87° 102° (ESE) 13:07:42 437.305
O/OREOS (USA 219) 28 Jul 12:59:39 13:03:49 34° 256° (WSW) 13:07:56 437.305
AIST 1 28 Jul 13:00:18 13:04:08 28° 282° (WNW) 13:07:53
BEESAT 28 Jul 13:15:32 13:18:36 18° 93° (E) 13:21:52 436.000
Gurwin Techsat 1B 28 Jul 13:19:46 13:24:07 27° 71° (ENE) 13:28:35 435.225
JAS-2 28 Jul 13:26:09 13:27:07 11° 60° (ENE) 13:28:35 435.910
SWISSCUBE 28 Jul 13:34:31 13:38:44 32° 97° (E) 13:43:00 437.505
Cosmos 2504 28 Jul 13:38:32 13:46:23 43° 78° (ENE) 13:54:30 435.465 / 435.565
ITUPSAT 1 28 Jul 13:53:08 13:57:44 46° 99° (E) 14:02:19 437.325
YUBILEINY 28 Jul 14:02:09 14:07:03 15° 277° (W) 14:11:15 435.215
ITAMSAT 1 28 Jul 14:05:10 14:10:21 72° 76° (ENE) 14:15:35 435.822/435.867
AO-7 28 Jul 14:17:57 14:24:18 26° 62° (ENE) 14:30:58 29.400- 29.500
Cosmos 2491 28 Jul 14:28:19 14:34:12 18° 293° (WNW) 14:39:32 435.465 / 435.565
Oscar 19 28 Jul 14:35:46 14:38:19 13° 269° (W) 14:40:33 437.125/150
BEESAT 28 Jul 14:52:12 14:56:36 36° 287° (WNW) 15:00:55 436.000
STARS 28 Jul 14:57:25 15:00:39 20° 95° (E) 15:03:59 437.465
DANDE 28 Jul 14:57:44 14:59:35 13° 79° (E) 15:01:55 436.750
Gurwin Techsat 1B 28 Jul 14:59:24 15:04:01 29° 264° (W) 15:08:35 435.225
JAS-2 28 Jul 15:05:29 15:11:10 88° 79° (E) 15:17:39 435.910
HORYU 2 28 Jul 15:12:04 15:16:11 40° 74° (ENE) 15:20:23 437.375
SWISSCUBE 28 Jul 15:12:50 15:16:25 21° 290° (WNW) 15:19:50 437.505
KKS-1 28 Jul 15:13:02 15:17:25 56° 100° (E) 15:21:48 437.445
Cosmos 2504 28 Jul 15:31:00 15:38:27 35° 272° (W) 15:45:51 435.465 / 435.565
ITUPSAT 1 28 Jul 15:32:32 15:35:16 15° 292° (WNW) 15:37:45 437.325
CUSAT 1 28 Jul 15:45:09 15:49:16 85° 265° (W) 15:54:49 437.405
AO-7 28 Jul 16:08:21 16:16:36 61° 257° (WSW) 16:24:52 29.400- 29.500
STARS 28 Jul 16:33:19 16:37:05 27° 288° (WNW) 16:40:47 437.465
DANDE 28 Jul 16:39:09 16:42:33 30° 262° (W) 16:46:49 436.750
GONETS M04 28 Jul 16:43:30 16:51:06 34° 74° (ENE) 16:58:54
CUTE-I 28 Jul 16:45:09 16:47:36 14° 66° (ENE) 16:50:21 437.470
HORYU 2 28 Jul 16:50:44 16:53:03 14° 268° (W) 16:55:08 437.375
KKS-1 28 Jul 16:52:33 16:53:37 11° 292° (WNW) 16:54:24 437.445
MOZHAYETS 4 28 Jul 17:11:04 17:15:38 60° 284° (WNW) 17:20:10
Cosmos 2499 28 Jul 17:22:30 17:24:50 12° 63° (ENE) 17:28:02 435.465 / 435.565
Cubesat XI-IV 28 Jul 17:25:17 17:30:06 36° 72° (ENE) 17:35:00 437.490
SO-50 28 Jul 17:51:51 17:52:21 10° 44° (NE) 17:53:07 436.795
VERMONT LUNAR 28 Jul 18:15:39 18:18:24 27° 145° (SE) 18:21:10 437.305
CUTE-I 28 Jul 18:21:54 18:27:13 62° 259° (WSW) 18:32:32 437.470
PCSat 28 Jul 18:26:51 18:31:08 24° 55° (NE) 18:35:31 145.827
PRISM 28 Jul 18:31:33 18:33:15 13° 92° (E) 18:35:12 437.425
GONETS M04 28 Jul 18:39:59 18:48:04 43° 271° (W) 18:56:02
GOMX 1 28 Jul 18:44:33 18:45:26 11° 70° (ENE) 18:46:36 467.674
CUBESAT XI-V 28 Jul 18:54:07 18:58:39 59° 284° (WNW) 19:03:08 437.345
Cubesat XI-IV 28 Jul 19:06:03 19:10:18 23° 265° (W) 19:14:24 437.490
Cosmos 2499 28 Jul 19:10:53 19:19:39 75° 82° (E) 19:28:31 435.465 / 435.565
CUTE 1.7 + AOD 2 28 Jul 19:21:17 19:23:24 14° 70° (ENE) 19:25:44 437.475
SEEDS 28 Jul 19:25:23 19:26:56 12° 69° (ENE) 19:28:44 437.485
STRAND 1 28 Jul 19:26:42 19:31:50 79° 104° (ESE) 19:36:55 437.568
CANX-2 28 Jul 19:28:08 19:31:06 19° 71° (ENE) 19:34:13 2200.000
SO-50 28 Jul 19:28:46 19:33:43 87° 63° (ENE) 19:38:31 436.795
BRITE-PL 28 Jul 19:48:03 19:52:41 64° 259° (W) 19:57:00 437.365/2234.400
VERMONT LUNAR 28 Jul 19:52:02 19:55:05 41° 339° (NNW) 19:58:07 437.305
HO-68 28 Jul 19:59:42 20:06:42 63° 72° (ENE) 20:13:45 435.675
AAUSAT CUBESAT 2 28 Jul 20:00:08 20:03:12 21° 72° (ENE) 20:06:26 437.432
PRISM 28 Jul 20:05:05 20:08:53 36° 286° (WNW) 20:12:38 437.425
PCSat 28 Jul 20:09:41 20:14:40 38° 250° (WSW) 20:19:35 145.827
RS-15 28 Jul 20:17:16 20:25:44 29° 106° (ESE) 20:34:47 29.354- 29.394
GOMX 1 28 Jul 20:19:02 20:23:19 48° 261° (W) 20:27:24 467.674
UWE-3 28 Jul 20:19:41 20:20:37 11° 69° (ENE) 20:21:49 435.000/436.395/437.385
CUBEBUG 2 28 Jul 20:25:15 20:27:54 17° 71° (ENE) 20:30:44 437.445
DOVE 4 28 Jul 20:26:19 20:30:33 70° 259° (W) 20:34:41 437.250
PHONESAT 2.4 28 Jul 20:40:07 20:43:34 60° 149° (SSE) 20:47:02 2401.200-2431.200
Oscar 11 28 Jul 20:44:42 20:48:28 31° 73° (ENE) 20:52:19 145.826/435.025
COMPASS 1 28 Jul 20:49:30 20:53:41 75° 259° (W) 20:57:55 437.405
CUTE 1.7 + AOD 2 28 Jul 20:55:03 20:59:01 38° 262° (W) 21:02:59 437.475
ISS 28 Jul 20:57:58 21:00:53 31° 131° (SE) 21:03:49 145.825
SEEDS 28 Jul 20:58:20 21:02:22 43° 261° (W) 21:06:26 437.485
CANX-2 28 Jul 21:03:13 21:06:52 27° 264° (W) 21:10:28 2200.000
CINEMA 3 28 Jul 21:03:54 21:08:00 60° 260° (W) 21:12:06 145.822/145.860
Cosmos 2499 28 Jul 21:06:11 21:12:06 19° 276° (W) 21:17:31 435.465 / 435.565
M-CUBED/EXP-1 PRIME 28 Jul 21:12:19 21:16:11 25° 99° (E) 21:20:03 437.505
HUMSAT D 28 Jul 21:21:09 21:23:51 18° 71° (ENE) 21:26:43 437.325/437.525
VERMONT LUNAR 28 Jul 21:30:03 21:32:19 18° 354° (N) 21:34:35 437.305
AAUSAT CUBESAT 2 28 Jul 21:35:16 21:38:42 24° 265° (W) 21:42:04 437.432
ZACube-1 28 Jul 21:37:17 21:41:25 80° 79° (ENE) 21:45:38 437.345
AUBIESAT-1 28 Jul 21:44:54 21:49:30 49° 103° (ESE) 21:53:58 437.475
DELFI C3 28 Jul 21:47:16 21:51:17 63° 259° (W) 21:55:19 145.870
HO-68 28 Jul 21:49:57 21:54:58 19° 268° (W) 21:59:35 435.675
UWE-3 28 Jul 21:52:47 21:56:46 46° 261° (W) 22:00:49 435.000/436.395/437.385
CUBEBUG 2 28 Jul 22:00:50 22:04:25 28° 264° (W) 22:08:00 437.445
FUNcube-1 28 Jul 22:00:53 22:04:55 51° 261° (W) 22:09:00 145.935
AISAT 28 Jul 22:03:52 22:07:25 25° 72° (ENE) 22:11:04 437.250
50 SAT 28 Jul 22:06:23 22:09:37 27° 73° (ENE) 22:12:57 437.505
PHONESAT 2.4 28 Jul 22:18:33 22:21:42 30° 344° (NNW) 22:24:50 2401.200-2431.200
UKube-1 28 Jul 22:20:57 22:25:13 65° 76° (ENE) 22:29:30 .
Oscar 11 28 Jul 22:21:49 22:24:43 17° 267° (W) 22:27:29 145.826/435.025
UNISAT 6 28 Jul 22:25:56 22:30:13 35° 98° (E) 22:34:32 437.425
RS-15 28 Jul 22:26:37 22:37:25 64° 303° (WNW) 22:48:30 29.354- 29.394
QB50P1 28 Jul 22:26:53 22:27:28 10° 91° (E) 22:28:21 145.935-145.965
NANOSAT C BR1 28 Jul 22:29:11 22:30:17 11° 91° (E) 22:31:41 145.865
CUBEBUG 1 28 Jul 22:29:55 22:33:29 26° 72° (ENE) 22:37:08 437.445
ISS 28 Jul 22:34:58 22:37:21 19° 325° (NW) 22:39:44 145.825
ESTCUBE 1 28 Jul 22:39:58 22:44:14 43° 74° (ENE) 22:48:33 437.505/2401.250
VELOX 1 28 Jul 22:43:09 22:47:33 72° 77° (ENE) 22:51:58 145.980
DX 1 28 Jul 22:43:10 22:47:28 59° 259° (W) 22:51:45 434.975-435.025
Cosmos 2491 28 Jul 22:44:54 22:52:05 29° 73° (ENE) 22:59:30 435.465 / 435.565
M-CUBED/EXP-1 PRIME 28 Jul 22:46:43 22:50:54 29° 292° (WNW) 22:54:55 437.505
BEESAT 2 28 Jul 22:52:19 22:52:23 10° 109° (ESE) 22:52:43 435.950
HUMSAT D 28 Jul 22:55:53 22:59:25 27° 264° (W) 23:02:55 437.325/437.525
YUBILEINY 28 Jul 23:04:16 23:09:17 18° 84° (E) 23:14:53 435.215
POLYITAN 1 28 Jul 23:05:08 23:09:01 34° 98° (E) 23:12:56 437.675
VERMONT LUNAR 28 Jul 23:07:15 23:09:44 21° 11° (N) 23:12:14 437.305
TIGRISAT 28 Jul 23:10:34 23:15:14 73° 283° (WNW) 23:19:55 435.000
ANTELSAT 28 Jul 23:10:42 23:15:23 70° 283° (WNW) 23:20:04 437.575/2403.000
AIST 1 28 Jul 23:11:59 23:15:59 39° 80° (E) 23:19:59
SPROUT 28 Jul 23:20:23 23:23:55 26° 73° (ENE) 23:27:33 437.525
AUBIESAT-1 28 Jul 23:20:58 23:23:47 15° 296° (WNW) 23:26:23 437.475
POPSAT HIP 1 28 Jul 23:23:31 23:27:42 58° 100° (E) 23:31:54 437.405
QB50P2 28 Jul 23:30:09 23:34:24 74° 101° (ESE) 23:38:40 145.880/145.840
BEESAT 3 28 Jul 23:33:37 23:37:30 48° 115° (ESE) 23:41:27 437.485
AISAT 28 Jul 23:40:26 23:43:57 22° 265° (W) 23:47:21 437.250
50 SAT 28 Jul 23:41:52 23:44:15 15° 267° (W) 23:46:28 437.505
TISAT 1 28 Jul 23:46:45 23:50:29 32° 73° (ENE) 23:54:15 437.305
BUGSAT 1 28 Jul 23:47:30 23:51:32 68° 100° (E) 23:55:37 437.445
PHONESAT 2.4 28 Jul 23:57:41 00:00:18 19° 1° (N) 00:02:56 2401.200-2431.200
AIST 2 28 Jul 23:58:26 00:00:17 13° 109° (ESE) 00:02:21 435.215
DUCHIFAT 1 28 Jul 23:59:09 00:03:15 50° 284° (WNW) 00:07:22 145.980
QB50P1 28 Jul 23:59:32 00:03:38 47° 285° (WNW) 00:07:43 145.935-145.965
NANOSAT C BR1 29 Jul 00:02:20 00:06:23 44° 285° (WNW) 00:10:26 145.865
UNISAT 6 29 Jul 00:03:26 00:06:44 19° 290° (WNW) 00:09:54 437.425
CUBEBUG 1 29 Jul 00:06:26 00:09:48 21° 265° (W) 00:13:04 437.445
BEESAT 29 Jul 00:18:49 00:20:36 12° 68° (ENE) 00:22:42 436.000
ESTCUBE 1 29 Jul 00:18:59 00:21:21 13° 268° (W) 00:23:27 437.505/2401.250
BEESAT 2 29 Jul 00:26:04 00:30:02 50° 300° (WNW) 00:34:03 435.950
SWISSCUBE 29 Jul 00:36:51 00:40:27 22° 70° (ENE) 00:44:12 437.505
Cosmos 2491 29 Jul 00:40:58 00:49:16 49° 269° (W) 00:57:28 435.465 / 435.565
POLYITAN 1 29 Jul 00:42:02 00:44:39 16° 290° (WNW) 00:47:06 437.675
VERMONT LUNAR 29 Jul 00:43:39 00:46:48 79° 26° (NNE) 00:49:55 437.305
RS-15 29 Jul 00:46:05 00:52:52 17° 330° (NNW) 00:59:15 29.354- 29.394
AIST 1 29 Jul 00:51:49 00:53:17 11° 272° (W) 00:54:30
ITUPSAT 1 29 Jul 00:55:22 00:59:33 31° 72° (ENE) 01:03:50 437.325
YUBILEINY 29 Jul 00:56:40 01:05:20 74° 278° (W) 01:14:05 435.215
SPROUT 29 Jul 00:56:52 01:00:01 19° 266° (W) 01:03:01 437.525
Oscar 19 29 Jul 01:10:27 01:14:51 29° 96° (E) 01:19:21 437.125/150
BEESAT 3 29 Jul 01:13:50 01:15:45 13° 311° (NW) 01:17:31 437.485
TISAT 1 29 Jul 01:23:52 01:26:21 15° 267° (W) 01:28:40 437.305
O/OREOS (USA 219) 29 Jul 01:27:32 01:31:48 47° 105° (ESE) 01:36:08 437.305
AIST 2 29 Jul 01:34:28 01:38:32 43° 301° (WNW) 01:42:36 435.215
PHONESAT 2.4 29 Jul 01:35:42 01:38:53 33° 18° (NNE) 01:42:05 2401.200-2431.200
Gurwin Techsat 1B 29 Jul 01:41:42 01:44:43 16° 92° (E) 01:47:59 435.225
STARS 29 Jul 01:52:47 01:52:54 10° 68° (ENE) 01:53:19 437.465
BEESAT 29 Jul 01:53:19 01:58:02 56° 260° (W) 02:02:45 436.000
Cosmos 2504 29 Jul 02:04:22 02:10:14 31° 87° (E) 02:16:32 435.465 / 435.565
KKS-1 29 Jul 02:06:49 02:10:33 28° 72° (ENE) 02:14:21 437.445
SWISSCUBE 29 Jul 02:13:56 02:18:10 30° 263° (W) 02:22:21 437.505
JAS-2 29 Jul 02:20:44 02:25:59 20° 90° (E) 02:31:35 435.910
VERMONT LUNAR 29 Jul 02:21:48 02:23:15 12° 219° (SW) 02:24:36 437.305
ITAMSAT 1 29 Jul 02:23:18 02:28:04 38° 98° (E) 02:32:52 435.822/435.867
ITUPSAT 1 29 Jul 02:33:48 02:37:29 21° 266° (W) 02:41:02 437.325
Oscar 19 29 Jul 02:49:48 02:54:08 27° 289° (WNW) 02:58:22 437.125/150
YUBILEINY 29 Jul 03:02:22 03:04:02 10° 298° (WNW) 03:04:47 435.215
O/OREOS (USA 219) 29 Jul 03:09:26 03:11:34 13° 302° (WNW) 03:13:28 437.305
HORYU 2 29 Jul 03:10:11 03:11:41 12° 91° (E) 03:13:29 437.375
PHONESAT 2.4 29 Jul 03:13:35 03:16:56 47° 212° (SSW) 03:20:15 2401.200-2431.200
Gurwin Techsat 1B 29 Jul 03:19:53 03:25:01 49° 286° (WNW) 03:30:06 435.225
STARS 29 Jul 03:24:38 03:28:55 57° 260° (W) 03:33:13 437.465
KKS-1 29 Jul 03:43:54 03:47:12 20° 266° (W) 03:50:21 437.445
Cosmos 2504 29 Jul 03:55:57 04:02:18 36° 284° (WNW) 04:08:54 435.465 / 435.565
JUGNU 29 Jul 03:59:32 04:03:23 18° 168° (SSE) 04:07:16 437.505
ITAMSAT 1 29 Jul 04:03:30 04:07:21 21° 291° (WNW) 04:11:00 435.822/435.867
JAS-2 29 Jul 04:03:48 04:11:36 70° 285° (WNW) 04:19:16 435.910
DANDE 29 Jul 04:04:43 04:07:58 24° 98° (E) 04:10:42 436.750
MOZHAYETS 4 29 Jul 04:07:43 04:12:18 71° 77° (ENE) 04:16:57
AO-7 29 Jul 04:15:24 04:23:39 65° 103° (ESE) 04:31:53 29.400- 29.500
HORYU 2 29 Jul 04:44:17 04:48:38 48° 286° (WNW) 04:52:57 437.375
CUSAT 1 29 Jul 04:49:50 04:52:59 32° 279° (W) 04:55:36 437.405
ISS 29 Jul 05:05:16 05:08:24 45° 42° (NE) 05:11:32 145.825
RS-15 29 Jul 05:22:10 05:31:17 26° 41° (NE) 05:41:06 29.354- 29.394
GONETS M04 29 Jul 05:38:03 05:46:08 46° 90° (E) 05:54:20
SRMSAT 29 Jul 05:44:50 05:48:37 18° 168° (SSE) 05:52:26 437.500
JUGNU 29 Jul 05:47:09 05:51:50 25° 177° (S) 05:56:31 437.505
Cubesat XI-IV 29 Jul 05:48:07 05:51:59 21° 94° (E) 05:56:01 437.490
DANDE 29 Jul 05:50:18 05:50:56 10° 282° (WNW) 05:51:20 436.750
CUBESAT XI-V 29 Jul 05:52:09 05:56:51 75° 76° (ENE) 06:01:33 437.345
JAS-2 29 Jul 05:52:48 05:55:34 12° 299° (WNW) 05:57:40 435.910
AO-7 29 Jul 06:09:28 06:15:55 25° 298° (WNW) 06:22:01 29.400- 29.500
STRAND 1 29 Jul 06:37:34 06:42:40 68° 75° (ENE) 06:47:48 437.568
ISS 29 Jul 06:43:29 06:44:33 11° 233° (SW) 06:45:28 145.825
CUTE-I 29 Jul 06:43:58 06:49:18 80° 102° (ESE) 06:54:37 437.470
PRISM 29 Jul 06:49:34 06:53:45 79° 77° (ENE) 06:57:57 437.425
Cubesat XI-IV 29 Jul 07:27:19 07:32:13 37° 288° (WNW) 07:37:02 437.490
SRMSAT 29 Jul 07:32:32 07:37:13 25° 177° (S) 07:41:55 437.500
RS-15 29 Jul 07:33:32 07:45:30 88° 243° (WSW) 07:57:47 29.354- 29.394
HO-68 29 Jul 07:35:30 07:38:43 14° 90° (E) 07:42:28 435.675
GONETS M04 29 Jul 07:35:36 07:43:12 31° 287° (WNW) 07:50:35
JUGNU 29 Jul 07:35:51 07:40:18 22° 187° (S) 07:44:43 437.505
Cosmos 2499 29 Jul 07:41:48 07:48:53 66° 93° (E) 07:56:32 435.465 / 435.565
BRITE-PL 29 Jul 07:56:51 08:01:09 55° 100° (E) 08:05:47 437.365/2234.400
M-CUBED/EXP-1 PRIME 29 Jul 07:57:30 07:59:06 13° 63° (ENE) 08:00:58 437.505
STRAND 1 29 Jul 08:21:29 08:22:26 10° 270° (W) 08:22:56 437.568
GOMX 1 29 Jul 08:24:32 08:29:01 67° 101° (E) 08:33:50 467.674
CUTE-I 29 Jul 08:27:59 08:28:48 10° 295° (WNW) 08:29:13 437.470
AUBIESAT-1 29 Jul 08:28:23 08:31:33 25° 67° (ENE) 08:35:02 437.475
DOVE 4 29 Jul 08:29:17 08:33:40 44° 99° (E) 08:38:21 437.250
COMPASS 1 29 Jul 08:38:17 08:41:42 24° 95° (E) 08:45:12 437.405
CUTE 1.7 + AOD 2 29 Jul 08:44:46 08:48:57 51° 99° (E) 08:53:07 437.475
SEEDS 29 Jul 08:47:21 08:51:24 42° 98° (E) 08:55:27 437.485
BEESAT 2 29 Jul 08:50:10 08:53:16 21° 54° (NE) 08:56:23 435.950
CANX-2 29 Jul 08:52:32 08:56:51 74° 102° (ESE) 09:01:08 2200.000
PCSat 29 Jul 09:02:46 09:08:01 57° 112° (ESE) 09:13:21 145.827
CINEMA 3 29 Jul 09:02:46 09:07:16 45° 99° (E) 09:11:56 145.822/145.860
HO-68 29 Jul 09:20:03 09:27:16 80° 286° (WNW) 09:34:27 435.675
SRMSAT 29 Jul 09:21:20 09:25:50 23° 187° (S) 09:30:21 437.500
UNISAT 6 29 Jul 09:21:32 09:24:11 17° 70° (ENE) 09:27:01 437.425
AAUSAT CUBESAT 2 29 Jul 09:22:00 09:26:13 76° 101° (E) 09:30:23 437.432
JUGNU 29 Jul 09:26:04 09:28:43 13° 196° (SSW) 09:31:15 437.505
M-CUBED/EXP-1 PRIME 29 Jul 09:29:55 09:33:29 40° 258° (WSW) 09:37:22 437.505
ZACube-1 29 Jul 09:31:01 09:34:37 23° 95° (E) 09:38:20 437.345
DELFI C3 29 Jul 09:31:38 09:34:53 24° 95° (E) 09:38:11 145.870
BEESAT 3 29 Jul 09:34:07 09:38:09 86° 243° (WSW) 09:42:07 437.485
SO-50 29 Jul 09:38:03 09:42:44 89° 136° (SE) 09:47:37 436.795
Cosmos 2499 29 Jul 09:38:05 09:42:57 18° 293° (WNW) 09:47:34 435.465 / 435.565
BRITE-PL 29 Jul 09:38:33 09:39:25 10° 290° (WNW) 09:39:59 437.365/2234.400
UWE-3 29 Jul 09:46:52 09:51:18 49° 99° (E) 09:55:50 435.000/436.395/437.385
RS-15 29 Jul 09:49:19 09:56:55 18° 257° (WSW) 10:03:33 29.354- 29.394
FUNcube-1 29 Jul 09:53:39 09:57:57 42° 98° (E) 10:02:18 145.935
POLYITAN 1 29 Jul 09:54:56 09:57:06 14° 70° (ENE) 09:59:28 437.675
CUBEBUG 2 29 Jul 09:55:24 10:00:03 82° 103° (ESE) 10:04:48 437.445
AIST 2 29 Jul 10:00:55 10:04:28 27° 55° (NE) 10:08:02 435.215
AUBIESAT-1 29 Jul 10:03:31 10:06:19 19° 263° (W) 10:09:08 437.475
TIGRISAT 29 Jul 10:04:34 10:08:43 52° 75° (ENE) 10:12:59 435.000
ANTELSAT 29 Jul 10:04:53 10:09:05 55° 75° (ENE) 10:13:22 437.575/2403.000
DOVE 4 29 Jul 10:08:30 10:11:11 15° 289° (WNW) 10:13:43 437.250
POPSAT HIP 1 29 Jul 10:12:12 10:15:26 23° 72° (ENE) 10:18:47 437.405
Oscar 11 29 Jul 10:12:14 10:16:34 64° 284° (WNW) 10:20:52 145.826/435.025
COMPASS 1 29 Jul 10:14:03 10:17:15 20° 288° (WNW) 10:20:19 437.405
UKube-1 29 Jul 10:14:32 10:17:06 16° 94° (E) 10:19:50 .
QB50P2 29 Jul 10:18:38 10:22:13 28° 73° (ENE) 10:25:52 145.880/145.840
CUTE 1.7 + AOD 2 29 Jul 10:23:17 10:24:27 11° 291° (WNW) 10:25:22 437.475
SEEDS 29 Jul 10:24:54 10:26:51 13° 291° (WNW) 10:28:35 437.485
BEESAT 2 29 Jul 10:27:55 10:31:16 25° 248° (WSW) 10:34:31 435.950
BUGSAT 1 29 Jul 10:33:23 10:36:37 24° 73° (ENE) 10:39:56 437.445
DX 1 29 Jul 10:36:31 10:40:25 33° 98° (E) 10:44:21 434.975-435.025
ESTCUBE 1 29 Jul 10:39:17 10:41:15 13° 92° (E) 10:43:30 437.505/2401.250
VELOX 1 29 Jul 10:39:21 10:42:30 20° 95° (E) 10:45:47 145.980
CINEMA 3 29 Jul 10:41:25 10:44:10 15° 290° (WNW) 10:46:45 145.822/145.860
HUMSAT D 29 Jul 10:43:44 10:48:03 67° 101° (ESE) 10:52:20 437.325/437.525
DUCHIFAT 1 29 Jul 10:46:20 10:50:26 59° 76° (ENE) 10:54:34 145.980
QB50P1 29 Jul 10:47:04 10:51:12 64° 76° (ENE) 10:55:22 145.935-145.965
PCSat 29 Jul 10:48:18 10:51:52 17° 308° (NW) 10:55:15 145.827
NANOSAT C BR1 29 Jul 10:49:36 10:53:45 68° 77° (ENE) 10:57:56 145.865
UNISAT 6 29 Jul 10:56:51 11:00:43 32° 263° (W) 11:04:38 437.425
DELFI C3 29 Jul 11:06:50 11:09:50 19° 288° (WNW) 11:12:41 145.870
ZACube-1 29 Jul 11:07:07 11:10:54 26° 287° (WNW) 11:14:37 437.345
HO-68 29 Jul 11:11:22 11:14:06 12° 300° (WNW) 11:16:17 435.675
SRMSAT 29 Jul 11:11:33 11:14:26 14° 196° (SSW) 11:17:12 437.500
YUBILEINY 29 Jul 11:13:06 11:21:23 45° 77° (ENE) 11:29:46 435.215
50 SAT 29 Jul 11:20:07 11:24:07 84° 101° (E) 11:28:05 437.505
SO-50 29 Jul 11:23:14 11:24:05 10° 316° (NW) 11:24:40 436.795
UWE-3 29 Jul 11:25:12 11:27:29 13° 290° (WNW) 11:29:31 435.000/436.395/437.385
POLYITAN 1 29 Jul 11:28:52 11:32:44 35° 262° (W) 11:36:35 437.675
FUNcube-1 29 Jul 11:31:20 11:33:57 15° 290° (WNW) 11:36:22 145.935
AISAT 29 Jul 11:34:41 11:39:06 81° 283° (WNW) 11:43:31 437.250
AIST 1 29 Jul 11:36:22 11:40:11 30° 92° (E) 11:44:02
Cosmos 2491 29 Jul 11:39:33 11:47:25 40° 89° (E) 11:55:25 435.465 / 435.565
AIST 2 29 Jul 11:39:48 11:42:53 20° 249° (WSW) 11:45:49 435.215
O/OREOS (USA 219) 29 Jul 11:42:15 11:46:35 41° 67° (ENE) 11:50:56 437.305
POPSAT HIP 1 29 Jul 11:47:57 11:51:15 22° 265° (W) 11:54:27 437.405
UKube-1 29 Jul 11:49:26 11:53:20 33° 287° (WNW) 11:57:10 .
QB50P2 29 Jul 11:55:17 11:58:09 17° 266° (W) 12:00:53 145.880/145.840
CUBEBUG 1 29 Jul 11:58:49 12:03:08 78° 283° (WNW) 12:07:27 437.445
